Regional Weather Roundup
Issued by NWS

Home | Current Version | Previous Version | Text Only | Print | Product List | Glossary On
Versions: 1 2 3 4 5 6 7 8 9 10 11 12 13 14 15 16 17 18 19 20 21 22 23 24 25 26 27 28 29 30 31 32 33 34 35 36 37 38 39 40 41 42 43 44 45 46 47 48 49 50
000
ASUS43 KMKX 170810
RWRWI

WISCONSIN REGIONAL WEATHER ROUNDUP
NATIONAL WEATHER SERVICE MILWAUKEE/SULLIVAN WI
200 AM CST MON JAN 17 2022

NOTE: "FAIR" INDICATES FEW OR NO CLOUDS BELOW 12,000 FEET WITH NO
SIGNIFICANT WEATHER AND/OR OBSTRUCTIONS TO VISIBILITY.

WIZ001-002-006>008-014>016-023>028-170900-
NORTHWEST WISCONSIN

CITY           SKY/WX    TMP DP  RH WIND       PRES   REMARKS
SUPERIOR ARPT  CLOUDY    24  16  69 N7        29.85S WCI  16
ASHLAND        CLOUDY    22  16  78 W3        29.81S
HAYWARD        CLOUDY    22  14  71 VRB3      29.80S
SIREN          CLOUDY    25  17  71 N6        29.85S WCI  18
CUMBERLAND     CLOUDY    27  18  69 NW9       29.81S WCI  17
RICE LAKE      CLOUDY    27  16  65 NW6       29.83S WCI  20
CHETEK         CLOUDY    25  15  65 NW6       29.82S WCI  18
LADYSMITH        N/A     23  18  83 CALM      29.80S
EAU CLAIRE     CLOUDY    25  14  63 NW10G21   29.82S WCI  15
MENOMONIE        N/A     27  19  71 NW10      29.83F WCI  18
NEW RICHMOND   CLOUDY    25  18  74 NW10      29.85S WCI  15
OSCEOLA        CLOUDY    29  22  76 NW8       29.89S WCI  21
$$

WIZ003>005-009-010-017-018-170900-
NORTH CENTRAL WISCONSIN

CITY           SKY/WX    TMP DP  RH WIND       PRES   REMARKS
MANITOWISH WTR FLURRIES  20  15  82 N7        29.71S WCI  11
ARBOR VITAE    FLURRIES  22  -6  29 N9        29.70F WCI  11
WOODRUFF       FLURRIES  22  -6  29 N9        29.70F WCI  11
RHINELANDER    CLOUDY    19  15  84 NW6       29.70S WCI  11
EAGLE RIVER    FLURRIES  20  15  81 N12G20    29.69S WCI   8
LAND O LAKES   FLURRIES  20  17  86 N9G16     29.71R WCI  10
PHILLIPS       CLOUDY    20  16  84 NW6       29.74S WCI  12
TOMAHAWK         N/A     20  17  86 NW5       29.72S WCI  14
MEDFORD        CLOUDY    19  17  89 NW8       29.74S WCI   9
MERRILL        MIX PCPN  20  16  85 NW5       29.73R WCI  13
$$

WIZ029-030-035-036-043>047-170900-
CENTRAL WISCONSIN

CITY           SKY/WX    TMP DP  RH WIND       PRES   REMARKS
WAUSAU         CLOUDY    21  13  71 W6        29.73R WCI  13
MOSINEE        CLOUDY    19  16  86 NW8       29.75S WCI   9
MARSHFIELD     CLOUDY    20  15  81 NW12      29.76R WCI   8
STEVENS POINT  CLOUDY    21  13  71 NW6       29.76R WCI  14
WAUPACA        CLOUDY    23  16  75 NW9       29.76R WCI  13
WAUTOMA        CLOUDY    20  15  81 NW9       29.77S WCI   9
WISC RAPIDS    CLOUDY    21  15  78 NW8       29.78S WCI  11
CAMP DOUGLAS   CLOUDY    22  15  77 NW9       29.79R WCI  11
$$

WIZ011>013-019>022-031-037>040-048>050-170900-
NORTHEAST WISCONSIN

CITY           SKY/WX    TMP DP  RH WIND       PRES   REMARKS
ANTIGO         CLOUDY    17  15  90 NW8       29.71S WCI   7
SHAWANO        CLOUDY    22  18  81 NW7       29.74R WCI  14
OCONTO         CLOUDY    21  16  81 NW6       29.72S WCI  13
STURGEON BAY   CLOUDY    20  16  84 NW5       29.70F WCI  13
GREEN BAY      CLOUDY    21  14  74 NW12      29.72F WCI   9
MANITOWOC      CLOUDY    20  16  84 NW9       29.72S WCI   9
APPLETON       CLOUDY    21  14  73 NW9       29.71S WCI  11
CLINTONVILLE   CLOUDY    21  18  86 NW10      29.76R WCI  10
OSHKOSH        CLOUDY    21  15  78 NW12      29.73S WCI   9
$$

WIZ032>034-041-042-053>061-170900-
SOUTHWEST WISCONSIN

CITY           SKY/WX    TMP DP  RH WIND       PRES   REMARKS
LA CROSSE      CLOUDY    25  19  78 NW9       29.83F WCI  15
SPARTA         CLOUDY    23  18  83 NW9       29.82S WCI  13
VIROQUA        CLOUDY    22  21  96 NW9G17    29.79R WCI  12
BOSCOBEL       CLOUDY    25  17  72 N3        29.83S
PRAIRIE DU CHI CLOUDY    26  19  76 NW9       29.83S WCI  16
PLATTEVILLE    CLOUDY    23  20  90 NW9       29.80R WCI  13
$$

WIZ056-057-062-063-064-067-068-170900-
SOUTH CENTRAL WISCONSIN

CITY           SKY/WX    TMP DP  RH WIND       PRES   REMARKS
REEDSBURG      CLOUDY    21  15  78 NW6       29.79R WCI  14
BARABOO/DELLS  CLOUDY    19  15  82 NW8       29.77S WCI   9
LONE ROCK      CLOUDY    23  16  74 NW7       29.81R WCI  15
MINERAL POINT  CLOUDY    25  18  74 NW9       29.77S WCI  15
MADISON        CLOUDY    21  15  78 N10       29.76R WCI  10
MIDDLETON      CLOUDY    23  17  77 NW12      29.77R WCI  12
WATERTOWN      CLOUDY    21  15  75 NW8G16    29.73S WCI  12
MONROE         CLOUDY    21  16  79 N10G16    29.74R WCI  10
JANESVILLE     CLOUDY    25  19  80 NW16      29.75R WCI  12
$$

WIZ051-052-058>065-066-070>072-170900-
SOUTHEAST WISCONSIN

CITY           SKY/WX    TMP DP  RH WIND       PRES   REMARKS
MILWAUKEE      CLOUDY    24  15  68 NW10      29.71S WCI  14
WAUKESHA       CLOUDY    19  16  86 NW12G18   29.72R WCI   7
MILWAUKEE/TIMM CLOUDY    21  14  73 NW12      29.73R WCI   9
RACINE         CLOUDY    24  17  74 NW12G20   29.71S WCI  13
KENOSHA        CLOUDY    24  17  74 NW10      29.70S WCI  14
FOND DU LAC    CLOUDY    21  14  74 NW13      29.73S WCI   9
SHEBOYGAN      CLOUDY    21  16  81 NW12      29.71R WCI   9
WEST BEND      CLOUDY    21  18  86 NW14      29.71S WCI   8
JUNEAU         CLOUDY    20  15  81 NW10      29.74S WCI   9
$$

LSZ147-162-170900-
LAKE SUPERIOR

STATION/POSITION TIME  TEMP    WIND        PRES    WAVE
                       AIR SEA DIR/SP/G            HT/PER
                 (UTC) (F)     (DEG/KT/KT) (MB)    (FT/S)
DEVILS ISLAND    0700   25     340/ 14/ 16 1010.4F
PORT WING        0730   26     320/ 13/ 14 1009.8S
SAXON HARBOR     0740   26     350/ 11/ 15 1008.8S
$$

LMZ867-665-643>646-170900-
LAKE MICHIGAN

STATION/POSITION TIME  TEMP    WIND        PRES    WAVE
                       AIR SEA DIR/SP/G            HT/PER
                 (UTC) (F)     (DEG/KT/KT) (MB)    (FT/S)
NORTHPORT PIER   0740   22     290/ 10/ 14 1006.4F
KEWAUNEE LAKESHO 0730   20     310/  8/ 11 1004.3F
SHEBOYGAN LAKESH 0800   21     320/ 13/ 15 1007.0S
PORT WASHINGTON  0740   22     320/  9/ 14 1008.1R
MILWAUKEE LAKESH 0750   23     330/ 10/ 13   N/A
KENOSHA   LAKESH 0800   23     320/ 15/ 18 1006.1
$$

TC  - TEMPERATURE IN CELSIUS
VSB - VISIBILITY IN STATUTE MILES
WCI - WIND CHILL INDEX
HX  - HEAT INDEX




USA.gov is the U.S. government's official web portal to all federal, state and local government web resources and services.